Powrót do katalogu

STARLINK-31875

AktywnyŁącznośćVLEO
NORAD 59674·PAYLOAD·🇺🇸 United States

Wystrzelony May 6, 2024 z Cape Canaveral Space Force Station

Loading…

Następne Przeloty (najbliższe 24 godziny)

TLE

ŚwieżeSource: CelesTrak SupGP

Epoka: Sep 14, 2026, 14:21 UTC

1 59674C 24084W   26257.59840278 -.00037634  00000+0 -13631-2 0  2571
2 59674  43.0005  51.3686 0001534 269.1679 160.1954 15.27596048    11

Śledź STARLINK-31875 w czasie rzeczywistym z AllMySat

Download on the App Store